Regional Weather Roundup
Issued by NWS Charleston, WV

Home | Current Version | Previous Version | Text Only | Print | Product List | Glossary Off
Versions: 1 2 3 4 5 6 7 8 9 10 11 12 13 14 15 16 17 18 19 20 21 22 23 24 25 26 27 28 29 30 31 32 33 34 35 36 37 38 39 40 41 42 43 44 45 46 47 48 49

000
ASUS41 KRLX 202110
RWRRLX
West Virginia Regional Weather Roundup
National Weather Service Charleston WV
500 PM EDT MON OCT 20 2014

Note: "fair" indicates few or no clouds below 12,000 feet with no
significant weather and/or obstructions to visibility.

WVZ003-202200-
Northern Panhandle of West Virginia

CITY           SKY/WX    TMP DP  RH WIND       PRES   REMARKS
WHEELING       CLOUDY    56  42  59 S10       29.89S
$$

WVZ009-202200-
Northwest West Virginia

CITY           SKY/WX    TMP DP  RH WIND       PRES   REMARKS
PARKERSBURG    CLOUDY    58  43  57 SW8G18    29.93F
$$

WVZ006-202200-
Western West Virginia

CITY           SKY/WX    TMP DP  RH WIND       PRES   REMARKS
HUNTINGTON     CLOUDY    58  46  64 SW12      29.92F
$$

WVZ015-202200-
West Central West Virginia

CITY           SKY/WX    TMP DP  RH WIND       PRES   REMARKS
CHARLESTON     CLOUDY    59  46  62 SW7       29.94S
$$

WVZ022-031-202200-
North Central West Virginia

CITY           SKY/WX    TMP DP  RH WIND       PRES   REMARKS
CLARKSBURG     CLOUDY    56  43  61 SW8       29.92F
MORGANTOWN     CLOUDY    59  39  47 SW7       29.92F
$$

WVZ025-035-042-045-202200-
Southern West Virginia

CITY           SKY/WX    TMP DP  RH WIND       PRES   REMARKS
BECKLEY        CLOUDY    56  42  59 SW9G23    29.97S
LOGAN            N/A     57  46  67 VRB6G13   29.95F
BLUEFIELD      LGT RAIN  56  43  61 W7        30.00S
LEWISBURG      LGT RAIN  59  42  51 SW3       29.97S
$$

WVZ047-202200-
Northern Mountains of West Virginia

CITY           SKY/WX    TMP DP  RH WIND       PRES   REMARKS
ELKINS         LGT RAIN  52  44  74 E3        29.96F
$$

WVZ052-202200-
Eastern Panhandle of West Virginia

CITY           SKY/WX    TMP DP  RH WIND       PRES   REMARKS
MARTINSBURG    CLOUDY    63  38  39 CALM      29.94F
PETERSBURG     DRIZZLE  N/A N/A N/A CALM      29.95F
$$


USA.gov is the U.S. government's official web portal to all federal, state and local government web resources and services.